Location: Unspecified
(0.0000°N, 0.0000°E)
Time: 07:41:50
(UTC+00:00)

TIROS 6 DEB - Pass Details

Date: 17 August 2024
Orbit: 609 x 625 km, 58.3° (Epoch: 04 September)

Event Time Altitude Azimuth Distance (km) Brightness Sun altitude
Exits shadow 04:34:55 28° 186° (S) 1,169 ? -21.7°
Maximum altitude 04:37:06 57° 118° (ESE) 728 ? -21.1°
Drops below altitude 10° 04:41:31 10° 40° (NE) 1,972 ? -20.1°
Sets 04:43:49 0° 36° (NE) 2,872 ? -19.5°
